Location: Unspecified
(0.0000°N, 0.0000°E)
Time: 17:53:46
(UTC+00:00)

Explorer 11/Cluster Stage 4 - All Passes

Search period start: 23 September 2019 00:00
Search period end: 03 October 2019 00:00
Orbit: 467 x 1260 km, 28.8° (Epoch: 23 September)

Date Brightness Start Highest point End Pass type
(mag) Time Alt. Az. Time Alt. Az. Time Alt. Az.
23 Sep - 04:11:15 10° NW 04:14:34 35° NNE 04:17:59 10° E visible
23 Sep - 05:59:38 10° W 06:02:46 25° SSW 06:06:14 10° SSE daylight
23 Sep - 13:21:39 10° S 13:24:42 13° SSE 13:27:51 10° SE daylight
23 Sep - 15:07:26 10° SW 15:14:43 38° SSE 15:22:12 10° E daylight
23 Sep - 16:56:02 10° WSW 17:04:19 76° NNW 17:12:10 10° NE daylight
23 Sep - 18:47:32 10° W 18:53:49 25° NNW 18:59:32 10° NNE visible
24 Sep - 04:00:35 10° NW 04:04:06 48° NNE 04:07:39 10° ESE visible
24 Sep - 05:49:39 10° WSW 05:52:20 19° SSW 05:55:13 10° SSE daylight
24 Sep - 13:10:24 10° S 13:14:07 14° SSE 13:18:00 10° SE daylight
24 Sep - 14:56:32 10° SW 15:03:55 44° SSE 15:11:40 10° E daylight
24 Sep - 16:45:19 10° WSW 16:53:28 66° NNW 17:01:23 10° NE daylight
24 Sep - 18:37:12 10° WNW 18:43:06 22° NNW 18:48:35 10° NNE visible
25 Sep - 02:04:51 10° NNE 02:05:09 10° NNE 02:05:26 10° NNE night (unlit)
25 Sep - 03:49:57 10° NW 03:53:39 69° NNE 03:57:15 10° ESE visible
25 Sep - 05:39:52 10° WSW 05:41:55 14° SSW 05:44:02 10° S daylight
25 Sep - 12:59:18 10° S 13:03:30 16° SSE 13:07:59 10° ESE daylight
25 Sep - 14:45:41 10° SW 14:53:07 51° SSE 15:01:04 10° ENE daylight
25 Sep - 16:34:40 10° WSW 16:42:39 56° NNW 16:50:33 10° NE daylight
25 Sep - 18:26:59 10° WNW 18:32:25 19° NNW 18:37:34 10° NNE visible
26 Sep - 01:52:32 10° N 01:54:44 14° NNE 01:56:47 10° ENE night (unlit)
26 Sep - 03:39:23 10° WNW 03:43:11 84° SSW 03:46:48 10° ESE visible
26 Sep - 05:30:40 10° SW 05:31:29 11° SSW 05:32:18 10° SSW visible
26 Sep - 12:48:17 10° SSW 12:52:51 18° SSE 12:57:50 10° ESE daylight
26 Sep - 14:34:53 10° SW 14:42:17 59° SSE 14:50:24 10° ENE daylight
26 Sep - 16:24:06 10° WSW 16:31:50 49° NNW 16:39:39 10° NE daylight
26 Sep - 18:16:53 10° WNW 18:21:47 17° NNW 18:26:29 10° NNE visible
27 Sep - 01:41:11 10° NNW 01:44:19 18° NNE 01:47:08 10° ENE night (unlit)
27 Sep - 03:28:51 10° WNW 03:32:43 60° SSW 03:36:17 10° SE visible
27 Sep - 12:37:21 10° SSW 12:42:11 20° SSE 12:47:34 10° ESE daylight
27 Sep - 14:24:09 10° SW 14:31:28 68° SSE 14:39:40 10° ENE daylight
27 Sep - 16:13:37 10° W 16:21:02 42° NNW 16:28:42 10° NE daylight
27 Sep - 18:06:55 10° NW 18:11:09 15° NNW 18:15:17 10° N visible
28 Sep - 01:30:03 10° NNW 01:33:53 25° NNE 01:37:13 10° E night (unlit)
28 Sep - 03:18:22 10° WNW 03:22:14 43° SSW 03:25:43 10° SE visible
28 Sep - 12:26:28 10° SSW 12:31:30 23° SSE 12:37:13 10° E daylight
28 Sep - 14:13:30 10° SW 14:20:40 79° SSE 14:28:52 10° ENE daylight
28 Sep - 16:03:13 10° W 16:10:17 36° NNW 16:17:41 10° NE daylight
28 Sep - 17:57:08 10° NW 18:00:34 13° NNW 18:03:58 10° N daylight
29 Sep - 01:19:00 10° NW 01:23:26 33° NNE 01:27:10 10° E night (unlit)
29 Sep - 03:07:57 10° W 03:11:44 33° SSW 03:15:07 10° SE night (unlit)
29 Sep - 12:15:40 10° SSW 12:20:48 26° SSE 12:26:47 10° E daylight
29 Sep - 14:02:54 10° WSW 14:09:52 89° NW 14:18:00 10° ENE daylight
29 Sep - 15:52:53 10° W 15:59:32 31° NNW 16:06:35 10° NNE daylight
29 Sep - 17:47:40 10° NW 17:50:01 11° NNW 17:52:22 10° N daylight
29 Sep - 23:21:27 10° N 23:23:38 12° NNE 23:25:40 10° NE night (unlit)
30 Sep - 01:08:01 10° NW 01:12:58 43° NNE 01:17:00 10° E night (unlit)
30 Sep - 02:57:35 10° W 03:01:13 26° SSW 03:04:27 10° SSE night (unlit)
30 Sep - 12:04:55 10° SSW 12:10:06 30° SSE 12:16:17 10° E daylight
30 Sep - 13:52:21 10° WSW 13:59:06 77° NNW 14:07:05 10° NE daylight
30 Sep - 15:42:41 10° W 15:48:51 26° NNW 15:55:27 10° NNE daylight
30 Sep - 23:09:38 10° NNW 23:13:12 16° NNE 23:16:23 10° ENE night (unlit)
01 Oct - 00:57:06 10° NW 01:02:27 58° NNE 01:06:45 10° ESE night (unlit)
01 Oct - 02:47:17 10° W 02:50:41 21° SSW 02:53:43 10° SSE night (unlit)
01 Oct - 11:54:12 10° SSW 11:59:24 35° SSE 12:05:42 10° E daylight
01 Oct - 13:41:54 10° WSW 13:48:21 65° NNW 13:56:07 10° NE daylight
01 Oct - 15:32:34 10° WNW 15:38:12 22° NNW 15:44:15 10° NNE daylight
01 Oct - 22:58:10 10° NNW 23:02:44 20° NNE 23:06:42 10° ENE night (unlit)
02 Oct - 00:46:13 10° NW 00:51:55 76° NNE 00:56:26 10° ESE night (unlit)
02 Oct - 02:37:04 10° WSW 02:40:08 17° SSW 02:42:54 10° S night (unlit)
02 Oct - 11:43:33 10° SW 11:48:43 41° SSE 11:55:03 10° E daylight
02 Oct - 13:31:29 10° WSW 13:37:39 54° NNW 13:45:06 10° NE daylight
02 Oct - 15:22:36 10° WNW 15:27:36 19° NNW 15:32:57 10° NNE daylight
02 Oct - 22:46:51 10° NNW 22:52:14 25° NNE 22:56:48 10° ENE night (unlit)
